TimePDT,TemperatureF,Dew PointF,Humidity,Sea Level PressureIn,VisibilityMPH,Wind Direction,Wind SpeedMPH,Gust SpeedMPH,PrecipitationIn,Events,Conditions,WindDirDegrees,DateUTC
12:15 AM,57.2,51.8,82,30.02,10.0,ESE,5.8,-,N/A,,Clear,110,2013-08-01 07:15:00
12:35 AM,55.4,51.8,88,30.02,10.0,ESE,5.8,-,N/A,,Clear,120,2013-08-01 07:35:00
12:55 AM,57.2,51.8,82,30.02,10.0,ESE,6.9,-,N/A,,Clear,110,2013-08-01 07:55:00
1:15 AM,55.4,51.8,88,30.02,10.0,East,6.9,-,N/A,,Clear,100,2013-08-01 08:15:00
1:35 AM,55.4,51.8,88,30.01,10.0,SE,3.5,-,N/A,,Clear,130,2013-08-01 08:35:00
1:55 AM,53.6,51.8,94,30.01,10.0,Calm,Calm,-,N/A,,Clear,0,2013-08-01 08:55:00
2:15 AM,53.6,51.8,94,30.01,10.0,ESE,4.6,-,N/A,,Clear,120,2013-08-01 09:15:00
2:35 AM,53.6,51.8,94,30.01,10.0,SE,4.6,-,N/A,,Clear,130,2013-08-01 09:35:00
2:55 AM,53.6,51.8,94,30.01,10.0,SE,3.5,-,N/A,,Clear,130,2013-08-01 09:55:00
3:15 AM,50.0,50.0,100,30.01,10.0,Calm,Calm,-,N/A,,Clear,0,2013-08-01 10:15:00
3:35 AM,50.0,50.0,100,30.01,10.0,East,4.6,-,N/A,,Clear,100,2013-08-01 10:35:00
3:55 AM,50.0,50.0,100,30.01,10.0,Calm,Calm,-,N/A,,Clear,0,2013-08-01 10:55:00
4:15 AM,50.0,50.0,100,30.02,10.0,Calm,Calm,-,N/A,,Clear,0,2013-08-01 11:15:00
4:35 AM,51.8,51.8,100,30.02,10.0,Calm,Calm,-,N/A,,Clear,0,2013-08-01 11:35:00
4:55 AM,50.0,50.0,100,30.02,10.0,Calm,Calm,-,N/A,,Clear,0,2013-08-01 11:55:00
5:15 AM,50.0,50.0,100,30.03,10.0,Calm,Calm,-,N/A,,Clear,0,2013-08-01 12:15:00
5:35 AM,50.0,50.0,100,30.03,10.0,Calm,Calm,-,N/A,,Clear,0,2013-08-01 12:35:00
5:55 AM,50.0,50.0,100,30.04,10.0,Calm,Calm,-,N/A,,Clear,0,2013-08-01 12:55:00
6:15 AM,50.0,50.0,100,30.04,10.0,Calm,Calm,-,N/A,,Clear,0,2013-08-01 13:15:00
6:35 AM,48.2,48.2,100,30.04,10.0,ENE,3.5,-,N/A,,Clear,70,2013-08-01 13:35:00
6:55 AM,50.0,50.0,100,30.04,9.0,East,3.5,-,N/A,,Clear,90,2013-08-01 13:55:00
7:15 AM,50.0,50.0,100,30.04,10.0,Calm,Calm,-,N/A,,Clear,0,2013-08-01 14:15:00
7:35 AM,53.6,53.6,100,30.05,10.0,Calm,Calm,-,N/A,,Clear,0,2013-08-01 14:35:00
7:55 AM,55.4,55.4,100,30.05,10.0,Calm,Calm,-,N/A,,Clear,0,2013-08-01 14:55:00
8:15 AM,57.2,53.6,88,30.05,10.0,Calm,Calm,-,N/A,,Clear,0,2013-08-01 15:15:00
8:35 AM,57.2,53.6,88,30.06,10.0,ENE,3.5,-,N/A,,Clear,70,2013-08-01 15:35:00
8:55 AM,59.0,53.6,82,30.06,10.0,SSW,10.4,-,N/A,,Clear,210,2013-08-01 15:55:00
9:15 AM,60.8,53.6,77,30.06,10.0,SSW,9.2,-,N/A,,Clear,200,2013-08-01 16:15:00
9:35 AM,62.6,53.6,72,30.06,10.0,South,3.5,-,N/A,,Clear,170,2013-08-01 16:35:00
9:55 AM,64.4,53.6,68,30.06,10.0,SSW,12.7,17.3,N/A,,Clear,200,2013-08-01 16:55:00
10:15 AM,64.4,53.6,68,30.06,10.0,SW,13.8,19.6,N/A,,Clear,220,2013-08-01 17:15:00
10:35 AM,64.4,53.6,68,30.06,10.0,SW,16.1,-,N/A,,Clear,230,2013-08-01 17:35:00
10:55 AM,64.4,53.6,68,30.06,10.0,SW,15.0,-,N/A,,Clear,230,2013-08-01 17:55:00
11:15 AM,66.2,51.8,60,30.06,10.0,SW,13.8,17.3,N/A,,Clear,230,2013-08-01 18:15:00
11:35 AM,66.2,51.8,60,30.06,10.0,SW,11.5,-,N/A,,Clear,220,2013-08-01 18:35:00
11:55 AM,68.0,51.8,56,30.06,10.0,SW,11.5,-,N/A,,Clear,230,2013-08-01 18:55:00
12:15 PM,68.0,51.8,56,30.06,10.0,SW,10.4,17.3,N/A,,Clear,230,2013-08-01 19:15:00
12:35 PM,69.8,51.8,53,30.05,10.0,SW,10.4,-,N/A,,Clear,220,2013-08-01 19:35:00
12:55 PM,71.6,50.0,46,30.05,10.0,WSW,12.7,-,N/A,,Clear,240,2013-08-01 19:55:00
1:15 PM,71.6,51.8,50,30.05,10.0,SW,15.0,-,N/A,,Clear,230,2013-08-01 20:15:00
1:35 PM,71.6,50.0,46,30.05,10.0,WSW,12.7,-,N/A,,Clear,240,2013-08-01 20:35:00
1:55 PM,73.4,50.0,44,30.04,10.0,SW,15.0,24.2,N/A,,Clear,230,2013-08-01 20:55:00
2:15 PM,73.4,50.0,44,30.03,10.0,WSW,16.1,19.6,N/A,,Clear,240,2013-08-01 21:15:00
2:35 PM,73.4,50.0,44,30.03,10.0,SW,16.1,23.0,N/A,,Clear,230,2013-08-01 21:35:00
2:55 PM,73.4,50.0,44,30.02,10.0,WSW,16.1,-,N/A,,Clear,240,2013-08-01 21:55:00
3:15 PM,73.4,50.0,44,30.01,10.0,SW,15.0,20.7,N/A,,Clear,230,2013-08-01 22:15:00
3:35 PM,73.4,50.0,44,30.01,10.0,SW,17.3,20.7,N/A,,Clear,230,2013-08-01 22:35:00
3:55 PM,73.4,50.0,44,30.00,10.0,SW,15.0,-,N/A,,Clear,230,2013-08-01 22:55:00
4:15 PM,73.4,50.0,44,29.99,10.0,WSW,13.8,19.6,N/A,,Clear,250,2013-08-01 23:15:00
4:35 PM,75.2,50.0,41,29.99,10.0,WSW,13.8,-,N/A,,Clear,240,2013-08-01 23:35:00
4:55 PM,75.2,51.8,44,29.98,10.0,SW,15.0,-,N/A,,Clear,230,2013-08-01 23:55:00
5:15 PM,73.4,51.8,47,29.98,10.0,SW,13.8,19.6,N/A,,Clear,230,2013-08-02 00:15:00
5:35 PM,73.4,51.8,47,29.97,10.0,SW,13.8,-,N/A,,Clear,220,2013-08-02 00:35:00
5:55 PM,73.4,51.8,47,29.97,10.0,SW,15.0,-,N/A,,Clear,220,2013-08-02 00:55:00
6:15 PM,71.6,51.8,50,29.97,10.0,WSW,17.3,-,N/A,,Clear,240,2013-08-02 01:15:00
6:35 PM,69.8,51.8,53,29.96,10.0,SSW,9.2,16.1,N/A,,Clear,210,2013-08-02 01:35:00
6:55 PM,68.0,51.8,56,29.96,10.0,WSW,13.8,-,N/A,,Clear,240,2013-08-02 01:55:00
7:15 PM,66.2,51.8,60,29.96,10.0,WSW,16.1,-,N/A,,Clear,240,2013-08-02 02:15:00
7:35 PM,64.4,51.8,64,29.96,10.0,SW,12.7,24.2,N/A,,Clear,230,2013-08-02 02:35:00
7:55 PM,64.4,51.8,64,29.96,10.0,SW,9.2,-,N/A,,Clear,220,2013-08-02 02:55:00
8:15 PM,62.6,51.8,68,29.96,10.0,SSW,6.9,-,N/A,,Clear,210,2013-08-02 03:15:00
8:35 PM,62.6,51.8,68,29.96,10.0,Calm,Calm,-,N/A,,Clear,0,2013-08-02 03:35:00
8:55 PM,62.6,51.8,68,29.97,10.0,WSW,4.6,-,N/A,,Clear,240,2013-08-02 03:55:00
9:15 PM,59.0,50.0,72,29.97,10.0,Calm,Calm,-,N/A,,Clear,0,2013-08-02 04:15:00
9:35 PM,59.0,50.0,72,29.97,10.0,Calm,Calm,-,N/A,,Clear,0,2013-08-02 04:35:00
9:55 PM,59.0,51.8,77,29.98,10.0,Calm,Calm,-,N/A,,Clear,0,2013-08-02 04:55:00
10:15 PM,53.6,50.0,88,29.98,10.0,ENE,3.5,-,N/A,,Clear,70,2013-08-02 05:15:00
10:35 PM,53.6,50.0,88,29.98,10.0,Calm,Calm,-,N/A,,Clear,0,2013-08-02 05:35:00
10:55 PM,55.4,51.8,88,29.97,10.0,Calm,Calm,-,N/A,,Clear,0,2013-08-02 05:55:00
11:15 PM,53.6,50.0,88,29.97,10.0,Calm,Calm,-,N/A,,Clear,0,2013-08-02 06:15:00
11:35 PM,53.6,50.0,88,29.98,10.0,Calm,Calm,-,N/A,,Clear,0,2013-08-02 06:35:00
11:55 PM,55.4,53.6,94,29.98,10.0,Calm,Calm,-,N/A,,Clear,0,2013-08-02 06:55:00